EHI
0 0 0 0 2 4 4 2 0 0 0 0 0 0 0 1 0 1 7 37 76 80 60 57 60 48 30 17 10 5 1 0 0 0 0 0 0 0 0 0 0 0 0 0 0 0 0 0 0
0 0 0 3 6 5 2 1 0 0 0 0 0 0 1 1 0 3 15 46 73 68 47 47 55 48 32 19 12 7 3 1 0 0 0 0 0 0 0 0 0 0 0 0 0 0 0 0 0
0 0 0 5 11 7 1 0 0 0 0 0 0 1 2 1 1 6 24 52 68 53 35 43 53 48 33 21 13 9 5 3 2 2 1 0 0 0 0 0 0 0 0 0 0 0 0 0 0
1 1 1 4 7 5 1 0 0 0 0 0 2 5 4 1 1 7 23 48 59 47 36 44 54 49 32 19 12 8 5 5 5 6 4 3 2 1 1 1 1 1 0 0 0 0 0 0 0
0 0 1 1 1 1 0 0 0 0 0 0 5 11 9 2 2 6 16 34 48 50 45 46 52 47 30 18 11 8 6 6 7 9 8 7 7 5 4 4 5 4 3 1 1 0 0 0 0
0 0 0 0 0 0 0 0 0 0 0 0 5 12 11 4 2 5 10 20 39 57 56 48 47 41 28 18 12 8 7 6 6 8 8 8 8 7 6 7 8 9 8 5 3 2 1 0 0
0 0 0 0 0 0 0 0 0 0 0 0 3 9 10 7 4 4 7 15 39 64 63 47 39 34 24 17 13 9 7 6 5 5 6 6 6 6 8 11 12 14 15 13 9 6 4 2 1
0 0 0 0 0 0 0 0 0 0 1 2 4 8 10 9 5 3 4 15 41 67 64 43 34 28 18 14 15 13 9 8 7 6 5 5 4 6 10 16 20 23 24 21 15 12 10 7 5
0 0 0 0 0 0 0 0 0 1 5 8 11 13 12 9 7 5 5 15 41 66 63 46 39 29 14 15 23 22 17 17 15 13 14 12 7 7 14 26 38 40 35 30 24 21 18 12 7
0 0 0 0 0 0 0 0 1 4 10 15 17 16 12 12 15 13 11 21 44 62 59 54 51 35 16 23 38 33 27 33 29 27 34 31 18 11 20 45 62 60 51 43 37 32 26 16 7
0 0 0 0 0 0 1 2 3 7 12 17 19 16 12 17 25 27 27 39 56 58 51 57 61 44 25 33 47 40 37 51 49 44 55 55 38 27 35 60 77 74 64 54 46 40 31 18 9
0 0 0 0 0 0 1 3 6 10 14 19 23 23 21 26 35 41 49 61 65 56 47 57 69 60 44 46 53 47 46 59 64 63 69 71 60 50 55 69 79 76 68 57 49 46 37 23 14
0 0 0 0 0 0 2 4 7 13 19 24 34 41 42 45 50 57 65 72 69 58 54 65 75 74 66 63 62 56 55 62 68 73 76 77 75 72 72 75 76 75 70 60 52 49 44 32 24
0 0 0 0 0 1 3 5 7 13 22 32 48 62 68 70 73 76 79 79 75 68 69 76 80 80 79 75 70 63 61 64 68 72 74 75 79 81 78 74 71 70 67 61 55 50 46 37 30
0 0 0 0 0 1 4 8 12 16 24 39 56 72 82 87 90 91 91 88 84 81 84 84 81 82 83 80 74 65 59 60 63 65 68 70 73 75 72 67 63 59 57 56 53 47 39 30 25
0 0 0 0 0 0 3 12 19 23 31 44 60 72 80 87 89 90 90 89 87 87 90 88 83 83 84 78 69 58 50 48 50 52 56 60 62 62 61 57 50 45 43 43 42 38 29 21 17
0 0 0 0 0 1 6 17 24 27 37 51 61 66 69 72 74 76 78 77 78 82 84 84 84 83 78 68 57 46 39 37 37 38 42 48 50 49 48 45 38 32 30 30 28 27 23 18 15
0 0 0 0 0 2 11 22 25 26 36 48 54 54 52 52 54 59 63 62 64 70 74 77 79 77 68 57 48 42 38 35 32 31 33 37 38 34 33 33 30 25 21 20 20 20 18 15 14
0 0 0 0 1 4 14 24 26 26 33 40 41 38 34 33 36 42 46 46 48 53 59 64 65 62 54 47 44 45 44 38 32 27 26 27 24 20 18 20 22 20 16 15 15 14 12 10 10
0 0 0 0 1 4 11 23 28 26 27 30 28 23 19 19 22 24 26 28 30 33 38 43 44 41 35 32 35 38 39 35 28 23 20 17 14 10 8 13 16 14 11 10 10 9 8 6 6
0 0 0 0 1 2 6 18 27 24 18 16 15 12 9 11 12 10 11 13 15 17 20 22 24 21 18 18 20 23 25 24 21 19 16 12 8 4 5 8 10 8 6 6 6 6 5 4 4
0 0 0 0 0 0 2 11 21 19 11 8 7 6 5 6 6 5 5 6 7 8 8 10 12 12 11 12 12 12 12 12 11 11 10 8 4 2 2 4 5 4 3 3 4 4 4 3 2
0 0 0 0 0 0 0 6 13 12 8 8 9 6 3 2 3 3 3 3 3 2 3 6 12 14 14 14 12 9 7 5 4 4 4 4 3 2 1 1 3 3 2 2 3 4 4 3 3
0 0 0 0 0 0 0 2 6 6 6 10 11 7 2 0 1 1 1 2 2 2 2 7 16 23 24 22 17 12 8 4 2 1 1 2 2 1 0 1 2 2 2 1 2 5 5 4 4
0 0 0 0 0 0 0 1 3 5 8 10 10 6 2 0 0 0 0 2 3 4 6 10 19 27 28 25 21 15 9 5 1 0 0 0 0 0 0 1 2 2 1 1 2 4 4 3 4
0 0 0 0 0 0 0 1 2 4 8 8 6 4 2 0 0 0 0 1 2 5 8 11 16 22 24 22 19 13 7 3 1 0 0 0 0 0 0 0 1 1 0 0 1 2 3 3 3
0 0 0 0 0 0 1 2 2 2 4 4 3 3 2 0 0 0 0 0 0 3 6 9 11 14 16 16 13 9 4 1 0 0 0 0 0 0 0 0 0 0 0 0 0 1 1 2 3
0 0 0 0 0 0 0 1 2 1 1 1 1 1 1 0 0 0 0 0 0 1 3 4 5 6 8 8 7 4 2 1 0 0 0 0 0 0 0 0 0 0 0 0 0 0 0 1 1
0 0 0 0 0 0 0 1 1 1 0 0 0 0 0 0 0 0 0 0 0 0 1 1 1 2 2 2 2 1 1 1 0 0 0 0 0 0 0 0 0 0 0 0 0 0 0 0 0
0 0 0 0 0 0 0 0 1 0 0 0 0 0 0 0 0 0 0 0 0 0 0 0 0 0 0 0 0 1 1 1 1 0 0 0 0 0 0 0 0 0 0 0 0 0 0 0 0
Wind_Speed
12 12 10 7 5 3 7 10 5 9 9 9 8 7 13 16 12 9 9 15 23 22 19 18 17 15 14 13 13 13 13 12 12 11 11 11 10 10 9 9 8 8 9 9 9 9 9 9 9
13 13 10 7 6 4 6 4 6 8 7 5 6 8 14 15 12 11 11 17 24 21 17 16 18 15 14 14 13 13 13 12 12 11 11 10 10 9 9 8 8 7 8 8 8 8 8 8 8
14 14 8 8 9 7 4 4 6 6 6 6 5 10 11 10 11 10 14 19 22 19 17 18 18 16 15 14 13 12 12 12 11 11 10 10 9 9 9 8 8 7 8 8 8 8 8 8 8
10 10 8 11 15 9 3 5 6 5 5 4 5 11 10 8 8 13 16 19 20 19 18 18 18 16 14 14 13 12 11 11 11 10 10 9 9 9 8 8 7 7 7 8 7 8 8 8 7
11 8 12 15 15 8 3 5 6 5 4 5 8 13 12 11 14 16 16 18 19 19 18 17 17 16 15 13 12 12 11 11 10 10 10 9 9 8 8 8 8 7 7 7 8 8 8 8 8
8 9 13 14 10 6 3 5 6 6 4 7 8 12 9 12 13 15 16 15 18 20 19 16 17 16 15 13 12 12 11 11 10 10 10 9 9 8 8 8 8 8 8 8 8 8 9 8 8
11 12 17 20 17 9 2 4 5 5 5 5 5 9 10 13 11 13 13 13 18 20 19 15 15 14 14 13 13 12 11 11 10 10 10 9 9 9 9 9 9 10 9 9 9 9 10 10 10
11 12 18 19 18 10 3 3 4 4 3 2 2 7 12 14 13 14 12 12 16 19 18 15 14 13 12 12 13 13 12 11 11 11 11 10 10 10 11 10 11 11 11 11 11 11 11 11 11
14 13 16 19 15 11 7 5 6 4 2 6 10 11 16 17 15 14 11 11 12 15 15 15 15 13 12 13 13 13 12 12 11 10 12 10 9 10 11 14 14 15 13 13 12 12 12 11 12
14 13 19 19 17 15 12 9 9 5 5 8 9 11 14 14 13 12 11 12 11 12 13 12 14 12 12 10 11 9 10 10 10 8 10 9 8 7 9 13 17 17 16 15 14 14 13 11 9
17 18 18 20 19 15 13 11 10 6 6 9 7 6 7 12 12 11 10 10 10 8 9 10 11 8 8 5 8 6 5 7 9 9 8 7 6 5 5 4 9 11 13 10 11 12 9 9 7
20 19 19 19 17 14 13 11 8 6 6 8 6 3 4 8 9 10 9 8 11 8 7 8 9 6 2 1 3 3 3 4 5 7 8 6 4 4 3 2 4 6 5 6 6 6 9 9 8
18 18 17 17 15 13 11 9 6 4 6 6 6 5 4 4 5 6 10 8 9 6 5 5 6 5 2 2 2 1 1 1 1 1 3 3 3 3 4 2 2 3 4 5 6 5 6 7 7
16 17 16 15 14 11 9 8 5 2 5 7 9 10 10 9 9 8 8 8 7 5 4 5 6 5 3 2 1 2 3 2 2 1 1 2 2 2 3 3 3 3 3 3 4 5 4 5 5
15 16 17 16 14 10 7 6 1 6 7 9 10 10 14 15 14 13 11 9 7 5 6 6 5 5 4 1 1 2 2 3 2 2 2 2 2 3 3 4 4 4 4 4 4 5 4 5 6
18 16 16 13 11 9 10 3 7 6 7 10 10 10 11 13 14 13 12 11 11 9 9 8 6 6 4 3 2 2 3 3 3 3 3 3 3 4 4 4 5 5 4 3 4 5 5 5 5
14 12 12 7 5 6 6 7 8 6 9 10 9 10 10 10 11 11 11 11 11 10 9 9 8 6 4 2 1 2 2 2 3 3 2 3 4 5 4 4 5 5 4 4 6 5 4 5 6
10 7 5 3 3 3 4 9 9 7 10 10 10 10 9 9 8 8 9 10 9 9 8 7 6 5 4 2 2 2 2 2 2 2 3 4 4 5 5 4 5 5 5 5 6 5 4 4 4
9 7 6 4 3 2 4 9 9 8 9 11 10 9 8 8 7 7 8 8 8 7 7 6 5 4 3 3 3 3 3 3 3 2 2 3 4 5 4 4 4 4 4 5 6 5 5 4 4
10 8 7 4 1 3 3 6 8 7 7 9 9 9 8 8 7 7 7 7 7 6 5 4 4 4 3 3 2 2 2 3 2 2 2 3 4 4 4 3 3 3 4 5 5 5 3 3 4
10 10 9 7 6 8 6 4 8 6 7 8 8 8 9 8 8 7 6 6 6 5 4 5 4 3 3 4 3 3 2 2 2 2 2 2 3 3 3 4 3 3 3 3 5 4 4 4 3
7 9 11 10 8 6 5 1 5 4 3 5 7 8 8 8 8 7 6 5 4 4 4 3 2 2 3 4 4 5 5 4 4 3 2 3 3 3 2 3 3 3 2 2 3 3 3 3 3
8 7 7 11 11 8 5 3 4 7 7 8 8 8 8 7 7 5 5 4 3 2 2 2 2 0 2 3 4 5 5 5 5 5 5 4 3 2 1 1 2 3 3 3 3 3 2 2 3
9 5 8 11 8 7 5 2 3 6 9 10 10 9 7 7 6 4 3 3 2 2 1 1 0 1 2 3 4 5 6 6 7 7 6 5 3 2 1 1 1 2 2 3 3 3 3 3 3
9 5 5 6 4 7 7 2 1 7 10 9 9 8 6 6 5 4 4 4 3 3 2 2 2 2 3 4 4 5 6 7 8 8 6 5 4 3 2 1 0 1 2 2 2 2 3 3 3
8 4 2 4 6 4 1 1 1 4 8 8 6 5 4 3 2 2 2 2 3 3 2 2 3 3 4 4 5 5 6 6 6 7 6 6 5 5 4 2 2 2 3 3 2 1 2 2 2
8 7 8 6 6 0 5 5 2 3 6 5 4 3 2 1 1 2 3 3 4 5 4 4 4 5 5 5 6 6 7 6 7 7 7 7 6 7 5 3 3 4 3 3 3 2 3 2 2
7 10 7 7 8 6 5 5 4 4 3 3 3 3 3 3 4 4 5 5 5 5 5 6 6 6 6 7 6 9 6 7 7 7 8 7 7 7 7 7 6 6 5 5 4 4 4 3 3
8 9 9 8 8 8 4 5 6 3 3 5 6 5 4 5 7 7 7 7 7 8 8 7 7 7 7 7 7 7 7 7 7 7 7 7 7 7 7 7 7 7 7 7 6 6 5 5 4
6 6 7 7 8 8 5 6 4 4 5 7 7 8 8 8 8 8 9 9 9 9 9 9 8 8 8 8 7 7 7 8 8 9 8 8 8 8 8 8 8 9 9 8 8 8 7 7 6
Wind_Direction
182 200 212 229 235 256 284 284 358 37 41 41 38 31 53 53 46 77 113 119 115 123 133 137 136 136 136 136 139 142 144 145 143 142 142 140 139 137 134 132 129 125 120 117 115 112 111 112 112
195 205 215 235 229 230 253 275 13 40 40 31 56 46 66 64 66 99 111 116 118 126 138 139 138 138 138 137 139 143 146 148 148 148 147 146 146 145 143 142 140 136 129 126 126 125 122 122 123
223 225 241 244 240 231 258 18 23 41 50 26 52 65 57 68 77 97 118 125 122 131 136 135 142 140 140 140 141 143 147 150 151 151 152 152 152 152 151 151 151 148 142 139 139 139 136 136 138
230 225 242 253 269 280 325 22 10 18 53 32 51 83 74 61 88 112 130 128 127 134 132 139 144 143 143 144 144 145 149 152 154 155 158 159 160 161 160 160 159 158 154 152 153 153 152 152 154
238 252 246 258 271 291 328 27 353 358 35 32 57 92 92 88 103 123 135 133 138 134 131 141 146 146 147 148 149 151 153 156 159 161 164 167 168 170 171 171 172 171 168 168 168 168 168 170 173
243 251 264 279 289 275 338 21 342 4 20 52 67 90 98 115 126 138 139 146 140 131 132 140 147 149 151 154 157 159 161 165 168 171 174 177 179 184 186 185 185 184 184 184 183 183 184 186 189
257 277 287 293 294 291 16 13 340 346 19 57 90 111 124 128 137 134 140 153 136 131 132 144 149 153 157 161 165 168 171 175 178 180 183 187 190 194 198 199 198 197 196 196 196 195 197 199 201
263 281 285 284 287 302 36 16 324 329 32 37 43 107 134 137 146 138 154 147 134 131 138 149 152 156 162 167 173 176 180 184 188 191 193 198 202 207 209 208 205 205 203 203 205 207 208 208 209
256 264 272 278 299 325 344 346 323 355 359 51 46 74 123 142 148 144 152 144 137 136 142 153 153 161 171 174 173 179 187 192 195 199 203 205 213 211 208 217 206 205 207 210 213 215 217 216 217
241 255 267 284 307 318 324 329 325 338 31 56 61 87 121 146 147 148 158 154 147 142 148 155 154 167 180 181 158 182 189 189 201 203 196 204 221 232 224 202 202 203 206 211 217 220 221 221 224
246 253 272 288 302 312 313 318 325 340 25 51 69 100 144 148 148 155 165 158 144 149 155 151 149 166 181 173 156 191 194 176 196 216 199 202 217 230 240 198 190 200 207 212 214 217 220 221 223
254 255 266 281 294 301 300 306 318 0 39 59 77 106 151 154 160 166 156 151 143 160 160 152 142 149 187 167 154 185 199 174 190 198 205 204 209 240 246 232 186 193 204 210 215 208 211 222 228
264 262 261 267 274 277 280 285 297 356 44 59 66 70 60 88 113 140 140 141 136 151 156 131 124 128 113 34 3 329 311 286 221 188 203 213 207 225 251 259 236 224 215 211 216 217 212 219 227
282 284 280 274 269 265 268 272 262 59 58 65 61 53 45 50 62 71 80 97 113 131 136 117 110 109 101 83 353 328 326 340 317 319 251 238 245 235 244 258 254 245 238 231 220 222 219 225 223
273 271 270 263 257 246 242 252 52 71 68 79 75 63 52 44 46 51 57 63 73 87 86 86 101 97 102 94 339 317 314 313 320 322 318 292 267 262 252 249 252 248 239 234 230 237 226 227 225
274 263 263 256 240 231 231 191 78 80 94 90 86 83 70 54 50 49 53 55 54 61 65 62 61 72 68 58 20 324 325 327 326 322 317 308 295 276 265 255 253 246 238 236 230 230 229 228 226
264 266 268 274 252 238 214 126 100 102 107 101 95 87 79 69 58 54 57 62 62 62 63 62 55 50 42 28 353 305 304 297 297 307 311 313 297 288 274 261 259 255 245 241 246 229 218 233 227
300 299 294 281 213 222 133 123 124 116 118 116 108 100 90 81 70 64 68 72 70 67 64 62 65 49 21 20 348 321 323 323 322 327 329 329 312 298 287 269 261 256 246 239 239 239 225 229 224
287 293 269 213 192 232 165 141 131 134 136 124 115 110 103 96 93 85 79 82 82 76 73 68 60 50 22 19 353 347 345 336 330 324 346 327 310 300 289 284 278 270 256 245 243 238 227 226 228
288 297 302 305 329 275 184 137 125 125 111 110 117 120 122 123 112 104 105 98 90 84 82 83 67 47 23 14 332 304 305 296 307 339 334 320 312 308 299 295 284 276 266 263 259 242 225 233 218
316 326 315 299 278 263 239 155 105 92 101 114 121 129 135 135 128 123 113 106 100 90 74 69 55 37 16 348 327 334 320 304 329 333 331 340 323 310 306 308 294 281 267 257 256 242 220 231 227
314 306 295 294 278 272 263 219 122 140 162 147 145 138 133 130 133 133 132 123 116 118 112 108 86 33 4 342 347 338 325 329 335 332 334 334 316 306 305 316 323 314 298 275 262 242 232 240 249
284 276 327 342 331 316 336 342 146 159 193 176 162 148 139 139 138 137 136 133 131 146 148 153 152 88 337 327 320 320 321 326 326 327 317 310 294 276 289 333 348 349 332 325 320 315 263 245 248
304 312 12 8 356 324 306 307 171 188 186 177 166 151 152 150 153 158 160 164 195 233 268 290 134 290 293 298 304 306 307 308 307 303 297 294 285 280 268 268 18 346 337 336 331 320 284 272 277
316 328 14 5 343 269 268 294 180 178 161 158 151 147 156 157 169 178 197 216 224 241 253 276 293 289 287 289 297 302 303 300 288 282 285 289 292 292 287 321 41 298 301 305 315 323 303 288 282
308 307 253 266 259 244 178 76 97 118 123 127 128 136 148 151 164 209 245 253 267 285 304 309 306 301 295 289 289 287 287 283 286 298 311 308 301 294 279 260 241 246 254 269 281 285 290 296 293
323 328 321 296 298 114 140 136 202 155 115 112 119 119 109 85 320 305 312 316 318 325 334 337 331 320 310 300 295 284 276 281 288 291 287 282 281 287 293 292 269 251 244 246 247 250 252 252 258
320 329 341 331 337 346 99 117 138 125 63 35 47 55 42 359 337 338 336 343 353 351 353 349 340 331 325 316 303 303 303 298 289 286 284 282 279 278 277 269 261 251 239 233 232 234 237 235 229
343 356 356 344 349 338 10 84 109 103 45 28 22 28 12 358 347 345 351 2 359 352 345 345 341 333 325 317 309 305 301 297 293 285 278 277 274 271 269 266 261 253 241 230 225 230 230 232 232
335 2 357 351 343 329 341 104 110 95 65 43 20 12 9 356 348 352 356 357 352 345 341 336 332 325 321 318 315 311 310 307 303 301 298 296 290 281 274 265 260 256 252 235 225 227 228 224 223